Location: Boneville
(33.4331°N, 82.4399°W)
Time: 23:15:15
(UTC+00:00)

Hubble Space Telescope - Pass Details

Date: 28 September 2024
Orbit: 504 x 508 km, 28.5° (Epoch: 06 October)

Event Time Altitude Azimuth Distance (km) Brightness Sun altitude
Exits shadow 10:35:52 11° 235° (SW) 1,620 2.7 -10.5°
Maximum altitude 10:39:12 34° 171° (S) 842 1.8 -9.8°
Drops below altitude 10° 10:42:46 10° 106° (ESE) 1,698 4.7 -9.1°
Sets 10:45:07 0° 97° (E) 2,583 6.4 -8.6°
